History for Miami, FL

Wednesday, February 27, 2013 — View Current Conditions

Jump to Data:

Date:
Airport Code:
Recently Viewed Airport Codes: KMIA
Daily Summary
  Actual Average Record
Temperature
Mean Temperature 72°F 71°F  
Max Temperature 77°F 79°F 87°F (1959)
Min Temperature 67°F 64°F 41°F (1965)
Degree Days
Heating Degree Days 0 1  
Month to date heating degree days 16 27  
Since 1 July heating degree days 36 117  
Cooling Degree Days 7 7  
Month to date cooling degree days 207 164  
Year to date cooling degree days 476 315  
Growing Degree Days 22 (Base 50)    
Moisture
Dew Point 66°F    
Average Humidity 82    
Maximum Humidity 94    
Minimum Humidity 69    
Precipitation
Precipitation 0.10 in 0.09 in 2.66 in (1983)
Month to date precipitation 1.84 2.17  
Year to date precipitation 2.38 3.79  
Snow
Snow 0.00 in in in ()
Month to date snowfall 0.0  
Since 1 July snowfall 0.0  
Snow Depth 0.00 in    
Sea Level Pressure
Sea Level Pressure 29.95 in    
Wind
Wind Speed 5 mph (NW)    
Max Wind Speed 10 mph    
Max Gust Speed 15 mph    
Visibility 9 miles    
Events Rain    
T = Trace of Precipitation, MM = Missing Value Source: NWS Daily Summary

Show full METARS

(help) - Comma Delimited File

Hourly Observations

Time(EST) Temperature Dew Point Humidity Sea Level Pressure Visibility Wind Direction Wind Speed Gust Speed Precipitation Events Conditions
12:53 AM 77.0°F 72.0°F 84% 29.91 in 10.0 miles SSW 4.6 mph - N/A   Mostly Cloudy
1:53 AM 75.9°F 72.0°F 87% 29.90 in 10.0 miles SSW 5.8 mph - N/A   Scattered Clouds
2:53 AM 75.9°F 73.0°F 91% 29.88 in 7.0 miles Calm Calm - N/A   Mostly Cloudy
3:53 AM 75.9°F 73.0°F 91% 29.88 in 10.0 miles WSW 3.5 mph - N/A   Mostly Cloudy
4:12 AM 75.2°F 73.4°F 94% 29.88 in 9.0 miles West 5.8 mph - N/A   Mostly Cloudy
4:53 AM 73.9°F 72.0°F 93% 29.89 in 5.0 miles West 4.6 mph - N/A   Overcast
5:53 AM 73.9°F 71.1°F 91% 29.91 in 6.0 miles WNW 5.8 mph - 0.00 in Rain Light Rain
6:30 AM 73.4°F 71.6°F 94% 29.92 in 6.0 miles NW 4.6 mph - 0.00 in Rain Light Rain
6:53 AM 71.1°F 66.0°F 84% 29.94 in 6.0 miles NW 10.4 mph - 0.00 in Rain Light Rain
7:23 AM 71.6°F 64.4°F 78% 29.94 in 7.0 miles NNW 5.8 mph - 0.00 in   Overcast
7:53 AM 71.1°F 64.9°F 81% 29.95 in 7.0 miles NW 6.9 mph - 0.00 in   Mostly Cloudy
8:53 AM 73.0°F 66.9°F 81% 29.96 in 10.0 miles Variable 3.5 mph - N/A   Mostly Cloudy
9:53 AM 75.0°F 64.9°F 71% 29.97 in 10.0 miles NW 8.1 mph - N/A   Mostly Cloudy
10:31 AM 75.2°F 64.4°F 69% 29.98 in 10.0 miles NW 3.5 mph - N/A   Overcast
10:53 AM 75.9°F 64.0°F 67% 29.98 in 10.0 miles Variable 4.6 mph - N/A   Overcast
11:03 AM 75.2°F 64.4°F 69% 29.98 in 10.0 miles Variable 3.5 mph - N/A   Mostly Cloudy
11:53 AM 75.0°F 64.0°F 69% 29.98 in 10.0 miles West 6.9 mph - N/A   Overcast
12:05 PM 73.4°F 62.6°F 69% 29.98 in 10.0 miles NW 9.2 mph - N/A   Overcast
12:53 PM 73.0°F 64.0°F 73% 29.97 in 10.0 miles NNW 9.2 mph - N/A   Overcast
1:53 PM 73.0°F 64.0°F 73% 29.95 in 10.0 miles NW 6.9 mph - N/A   Overcast
2:26 PM 73.4°F 64.4°F 73% 29.94 in 10.0 miles NNW 3.5 mph - 0.00 in   Mostly Cloudy
2:53 PM 75.0°F 64.9°F 71% 29.93 in 10.0 miles Calm Calm - 0.00 in   Mostly Cloudy
3:53 PM 73.0°F 64.0°F 73% 29.93 in 10.0 miles NW 5.8 mph - N/A   Overcast
4:53 PM 72.0°F 64.9°F 78% 29.93 in 10.0 miles Calm Calm - N/A   Overcast
5:53 PM 71.1°F 64.0°F 78% 29.94 in 10.0 miles NNW 5.8 mph - N/A   Mostly Cloudy
6:53 PM 70.0°F 64.9°F 84% 29.95 in 10.0 miles NNW 4.6 mph - N/A   Overcast
7:02 PM 69.8°F 64.4°F 83% 29.95 in 10.0 miles NNW 5.8 mph - N/A   Overcast
7:53 PM 70.0°F 64.0°F 81% 29.96 in 10.0 miles NW 3.5 mph - N/A   Overcast
8:53 PM 68.0°F 64.0°F 87% 29.99 in 10.0 miles NW 4.6 mph - 0.00 in Rain Light Rain
9:15 PM 66.2°F 64.4°F 94% 29.99 in 5.0 miles NNW 5.8 mph - 0.04 in Rain Rain
9:53 PM 66.9°F 64.9°F 93% 29.98 in 10.0 miles Calm Calm - 0.09 in   Overcast
10:23 PM 66.2°F 64.4°F 94% 29.98 in 10.0 miles Calm Calm - N/A   Overcast
10:53 PM 68.0°F 66.0°F 93% 29.98 in 10.0 miles Calm Calm - N/A   Overcast
11:53 PM 66.9°F 64.9°F 93% 29.98 in 7.0 miles WNW 4.6 mph - 0.01 in   Overcast